This is the latest recevied weather packets stored in our database for station/object WL7CLI. If no packets are shown the sender has not sent any weather packets the latest 10 day(s).
| Time | Temp. | Humidity | Pressure | Rain* | Wind** | Luminosity | Snow |
|---|---|---|---|---|---|---|---|
| 1788360629 | 28.33° C | 65% | 1012.9 hPa | 0 mm | - | - | - |
| 1788359702 | 27.78° C | 68% | 1013 hPa | 0 mm | - | - | - |
| 1788359655 | 27.22° C | 69% | 1013 hPa | 0 mm | - | - | - |
| 1788359568 | 27.22° C | 69% | 1013 hPa | 0 mm | - | - | - |
| 1788359534 | 27.22° C | 69% | 1013 hPa | 0 mm | - | - | - |
| 1788359429 | 27.22° C | 69% | 1013 hPa | 0 mm | - | - | - |
| 1788359289 | 27.22° C | 70% | 1012.2 hPa | 0 mm | - | - | - |
| 1788358503 | 26.67° C | 71% | 1013.1 hPa | 0 mm | - | - | - |
| 1788358420 | 26.67° C | 70% | 1013.3 hPa | 0 mm | - | - | - |
| 1788358355 | 26.67° C | 70% | 1013.3 hPa | 0 mm | - | - | - |
| 1788358260 | 26.67° C | 70% | 1013.3 hPa | 0 mm | - | - | - |
| 1788358228 | 26.67° C | 70% | 1013.3 hPa | 0 mm | - | - | - |
| 1788357729 | -17.78° C | 100% | 1013.8 hPa | 0 mm | - | - | - |
| 1788357489 | 26.67° C | 70% | 1012.9 hPa | 0 mm | - | - | - |
| 1788357303 | 26.67° C | 70% | 1013.6 hPa | 0 mm | - | - | - |
| 1788357135 | -17.78° C | 100% | 1013.8 hPa | 0 mm | - | - | - |
| 1788357029 | -17.78° C | 100% | 1013.8 hPa | 0 mm | - | - | - |
| 1788356203 | -17.78° C | 100% | 1014 hPa | 0 mm | - | - | - |
| 1788356102 | -17.78° C | 100% | 1014 hPa | 0 mm | - | - | - |
| 1788356039 | -17.78° C | 100% | 1014 hPa | 0 mm | - | - | - |
| 1788355829 | -17.78° C | 100% | 1014 hPa | 0 mm | - | - | - |
| 1788355690 | -17.78° C | 100% | 1009.9 hPa | 0 mm | - | - | - |
| 1788354972 | -17.78° C | 100% | 1013.8 hPa | 0 mm | - | - | - |
| 1788354922 | -17.78° C | 100% | 1013.8 hPa | 0 mm | - | - | - |
| 1788354902 | -17.78° C | 100% | 1013.8 hPa | 0 mm | - | - | - |
* Rain latest hour (hover to see other rain measurements)
** Current wind speed in m/s (hover to see current wind gust speed)